Location: Unspecified
(43.4680°N, 87.1740°E)
Time: 21:39:22
(UTC+00:00)

NOSS 3-4 (A) - Pass Details

Date: 17 April 2021
Orbit: 872 x 1340 km, 63.4° (Epoch: 06 May)

Event Time Altitude Azimuth Distance (km) Brightness Sun altitude
Rises 13:17:46 0° 207° (SSW) 3,446 6.5 -4.5°
Reaches altitude 10° 13:20:12 10° 205° (SSW) 2,517 5.8 -4.9°
Maximum altitude 13:25:56 70° 123° (ESE) 954 3.3 -5.9°
Drops below altitude 10° 13:32:04 10° 40° (NE) 2,686 5.6 -6.9°
Sets 13:34:45 0° 39° (NE) 3,696 6.4 -7.3°
